Regional Weather Roundup
Issued by NWS

Home | Current Version | Previous Version | Graphics & Text | Print | Product List | Glossary On
Versions: 1 2 3 4 5 6 7 8 9 10 11 12 13 14 15 16 17 18 19 20 21 22 23 24 25 26 27 28 29 30 31 32 33 34 35 36 37 38 39 40 41 42 43 44 45 46 47 48 49 50
000
ASUS43 KFSD 271702
RWRSD

WEATHER ROUNDUP FOR SOUTH DAKOTA
NATIONAL WEATHER SERVICE SIOUX FALLS SD
1200 PM CDT FRI MAY 27 2016

NOTE: "FAIR" INDICATES FEW OR NO CLOUDS BELOW 12,000 FEET WITH NO
SIGNIFICANT WEATHER AND/OR OBSTRUCTIONS TO VISIBILITY.


SDZ001>005-009-010-012>017-271800-
NORTHWEST AND NORTH CENTRAL SOUTH DAKOTA

CITY           SKY/WX    TMP DP  RH WIND       PRES   REMARKS
BUFFALO          N/A     64  44  48 NW10      29.79R
FAITH            N/A     65  44  46 NE12      29.84R
MOBRIDGE       CLOUDY    68  49  50 N9        29.80S
$$

SDZ012>016-024>037-041>051-057-063-072>074-271800-
SOUTHWEST AND SOUTH CENTRAL SOUTH DAKOTA

CITY           SKY/WX    TMP DP  RH WIND       PRES   REMARKS
RAPID CTY ARPT PTSUNNY   65  44  46 N14       29.86R
PIERRE         LGT RAIN  65  54  67 CALM      29.82R
CUSTER         CLOUDY    57  36  45 W8        29.90S
ELLSWORTH AFB  PTSUNNY   64  46  52 N13       29.85R
PHILIP         LGT RAIN  61  50  67 NE7       29.86R
PINE RIDGE     LGT RAIN  54  48  80 SE13      29.89R
WINNER         LGT RAIN  59  55  87 NW15      29.82F
$$

SDZ004>011-016>023-039-040-271800-
NORTHEAST SOUTH DAKOTA

CITY           SKY/WX    TMP DP  RH WIND       PRES   REMARKS
ABERDEEN       CLOUDY    71  56  58 N9        29.77F
WATERTOWN      LGT RAIN  60  56  86 S8        29.80R
BROOKINGS      CLOUDY    63  58  83 SW8       29.78F
SISSETON         N/A     75  50  41 E10       29.74F
$$

SDZ017-020-022-023-036>040-048>070-271800-
SOUTHEAST SOUTH DAKOTA

CITY           SKY/WX    TMP DP  RH WIND       PRES   REMARKS
SIOUX FALLS    LGT RAIN  68  58  70 VRB3      29.76F
HURON          CLOUDY    63  59  87 SW12      29.79R THUNDER
MITCHELL       CLOUDY    64  60  87 SW8       29.78F
YANKTON        PTSUNNY   66  57  72 SE5       29.74S
$$

ABBREVIATIONS USED IN REMARKS
   TC - TEMPERATURE IN CELSIUS
  WCI - WIND CHILL INDEX
   HX - HEAT INDEX
  VSB - VISIBILITY





USA.gov is the U.S. government's official web portal to all federal, state and local government web resources and services.